Regional Weather Roundup
Issued by NWS Grand Forks, ND

Home | Current Version | Previous Version | Text Only | Print | Product List | Glossary On
Versions: 1 2 3 4 5 6 7 8 9 10 11 12 13 14 15 16 17 18 19 20 21 22 23 24 25 26 27 28 29 30 31 32 33 34 35 36 37 38 39 40 41 42 43 44 45 46 47 48 49 50
000
ASUS43 KFGF 290510
RWRFGF
PRAIRIE TO PINES  WEATHER ROUNDUP
NATIONAL WEATHER SERVICE EASTERN NORTH DAKOTA/GRAND FORKS ND
1200 AM CDT THU SEP 29 2016

 **SATELLITE DATA USED TO AUGMENT SKY COVER AT AUTOMATED STATIONS**
 *****  WEATHER ACROSS EASTERN NORTH DAKOTA  *****

CITY           SKY/WX    TMP DP  RH WIND       PRES   REMARKS
GRAND FORKS    PTCLDY    44  42  93 CALM      30.41S
GRAND FRKS AFB CLEAR     41  41 100 SW2       30.41S FOG
GRAND FRKS NWS   N/A     45 N/A N/A MISG        N/A
DEVILS LAKE    CLEAR     50  47  89 SE8       30.41R
FARGO          CLEAR     48  44  86 E5        30.41R
WAHPETON ARPT  MOCLDY    52  43  71 E5        30.41R
$$

 ***** WEATHER ACROSS CENTRAL AND WESTERN NORTH DAKOTA  *****

CITY           SKY/WX    TMP DP  RH WIND       PRES   REMARKS
BISMARCK       CLEAR     46  45  96 E5        30.38S
MINOT          CLEAR     47  45  93 SE7       30.35S
JAMESTOWN      CLEAR     45  42  89 SE3       30.40R
MINOT AFB      CLEAR     45  43  93 SE8       30.34S
GARRISON         N/A     47  47 100 E7        30.35S
WILLISTON      CLEAR     60  39  45 E3        30.28S
DICKINSON      CLEAR     51  37  58 SE15      30.32R
HETTINGER      CLEAR     53  37  54 SE12      30.36R
$$

 *****  OTHER AIRPORT OBSERVATIONS IN OUR AREA  *****

CITY           SKY/WX    TMP DP  RH WIND       PRES   REMARKS
WALHALLA       FAIR      43  43 100 CALM      30.42R
GRAFTON AIRPOR FAIR      46  46 100 CALM      30.44R
VALLEY CITY AR FAIR      48  48 100 E6        30.43R
CANDO          FAIR      43  43 100 SE6       30.43R
CAVALIER APRT  FAIR      45  45 100 CALM      30.42R
GWINNER        FAIR      46  45  93 N3        30.40S
SHEYENNE NWR     N/A     44  43  95 CALM      29.95S
ROLLA          FOG       45  45 100 S6        30.40S VSB 1/2
 ***** THE ABOVE OBSERVATIONS ARE NON NWS ARE NOT QUALITY
       CONTROLLED AND MAY MIS-REPORT RAIN FOR SNOW...
$$

  *****  WEATHER ACROSS NORTHERN MINNESOTA  *****

CITY           SKY/WX    TMP DP  RH WIND       PRES   REMARKS
FLAG ISLAND    CLOUDY    55  52  88 CALM      30.42R
WARROAD        CLOUDY    46  43  87 CALM      30.44R
ROSEAU         HAZE      46  41  81 CALM      30.43S VSB 3/4
HALLOCK        CLEAR     46  45  93 CALM      30.42S
THF RVR FALLS  CLEAR     48  45  89 CALM      30.44R
BAUDETTE       CLOUDY    51  47  86 NE3       30.43R
WASKISH        CLOUDY    52  48  87 CALM      30.43S
CROOKSTON      CLEAR     52  45  76 SE3       30.43R
GREENBUSH NDAW   N/A     43  43 100 CALM        N/A
$$
  *****  WEATHER ACROSS CENTRAL AND WEST MINNESOTA  *****

CITY           SKY/WX    TMP DP  RH WIND       PRES   REMARKS
FOSSTON        PTCLDY    45  43  93 CALM      30.43S
BEMIDJI        CLOUDY    51  46  86 CALM      30.42S
PARK RAPIDS    CLOUDY    55  44  66 E5        30.42R
ELBOW LAKE     FAIR      51  46  84 SE6       30.42R
WADENA         CLOUDY    54  45  71 NE3       30.42R
DETROIT LAKES  CLEAR     50  46  87 E3        30.43S
MOORHEAD       CLEAR     48  45  87 E5        30.42R
FERGUS FALLS   CLEAR     48  45  87 E5        30.43S
MORRIS MN      MOCLDY    54  46  76 E5        30.40R
STAPLES        CLOUDY    54  46  76 CALM      30.42R
$$
  *****  WEATHER ELSEWHERE ACROSS MINNESOTA  *****

CITY           SKY/WX    TMP DP  RH WIND       PRES   REMARKS
DULUTH         CLOUDY    53  50  89 CALM      30.40S
INTRNTL FALLS  CLOUDY    54  49  83 NE3       30.43R
ELY            CLOUDY    54  50  87 CALM      30.42R
CLOQUET        CLOUDY    54  48  82 CALM      30.40S
WHEATON        CLEAR     46  45  93 CALM      30.43R FOG
BRAINERD       CLOUDY    53  49  86 CALM      30.41S
HIBBING        CLOUDY    50  49  96 NW3       30.42R
ALEXANDRIA     CLOUDY    50  45  83 NE5       30.43R
SAINT CLOUD    PTCLDY    52  49  89 N3        30.39R
MINNEAPOLIS    CLEAR     52  48  86 NE6       30.37R
$$

  *****  WEATHER ACROSS SOUTH DAKOTA  *****

CITY           SKY/WX    TMP DP  RH WIND       PRES   REMARKS
SIOUX FALLS    CLEAR     46  44  93 CALM      30.39R
BROOKINGS      CLEAR     42  41  96 CALM      30.39R
WATERTOWN      CLOUDY    42  40  92 N5        30.40R
HURON          CLEAR     47  45  93 E3        30.39R
SISSETON         N/A     41  39  93 NW3       30.40R
ABERDEEN       CLOUDY    44  41  89 E3        30.40R
MITCHELL       CLOUDY    47  43  86 CALM      30.39R
PIERRE         CLEAR     45  39  79 CALM      30.36R
MOBRIDGE       CLEAR     48  40  73 E8        30.36R
RAPID CITY     CLEAR     49  36  61 CALM      30.36R
$$

  *****  SOME WEATHER IN NEARBY STATES *****

CITY           SKY/WX    TMP DP  RH WIND       PRES   REMARKS
GLASGOW MT     CLEAR     59  51  75 E12       30.16F
GREAT FALLS MT CLEAR     46  43  89 SW7       30.16S
CHEYENNE WY    CLEAR     57  34  41 SE10      30.43R
SCOTTSBLUFF NE CLEAR     59  43  55 E13       30.34R
OMAHA NE       CLEAR     50  45  83 N7        30.34R
DES MOINES IA  CLEAR     56  49  77 N9        30.29R
DAVENPORT IA   CLEAR     51  48  89 N8        30.21S
CHICAGO IL     CLOUDY    59  55  87 N17       30.07S
EAU CLAIRE WI  PTCLDY    53  50  89 NE8       30.34S
LA CROSSE WI   MOCLDY    57  53  86 N10       30.30R
$$

  *****  SOME NATIONAL WEATHER *****

CITY           SKY/WX    TMP DP  RH WIND       PRES   REMARKS
LA GUARDIA NY  LGT RAIN  60  57  89 NE20G26   30.25S
RALEIGH NC     TSTM      66  65  96 SE5       29.99F
ATLANTA GA     CLEAR     70  44  39 W8        29.95S
NEW ORLEANS LA PTCLDY    79  70  74 W3        30.00F
OKLAHOMA CITY  PTCLDY    64  46  52 NE15      30.22R
ALBUQUERQUE NM CLOUDY    70  30  22 SE10      30.32R
SALT LAKE CITY MOCLDY    65  54  67 N10       30.18S
LOS ANGELES CA FAIR      73  65  75 SW9       29.94R
BOISE ID       FAIR      74  32  21 SE12      29.93S
SEATTLE WA     FAIR      57  48  72 N3        30.05S
$$

*** WEATHER ACROSS MANITOBA...SASKATCHEWAN AND ONTARIO ***
                ***ONTARIO***

CITY           SKY/WX    TMP DP  RH WIND       PRES   REMARKS
GERALDTON      CLOUDY    52  50  93 N3        30.42R
THUNDER BAY    PTCLDY    45  43  93 W3        30.41S
SIOUX LOOKOUT  CLOUDY    50  48  93 CALM      30.44S
TORONTO        PTCLDY    64  57  77 E13       30.17R
BIG TROUT LK   CLEAR     43  43 100 W7        30.41R
PICKLE LAKE    NOT AVBL
DRYDEN         CLOUDY    52  46  82 VRB2      30.44R
KENORA         CLOUDY    54  48  82 E5        30.44R
$$
                *** MANITOBA***

CITY           SKY/WX    TMP DP  RH WIND       PRES   REMARKS
BRANDON        CLEAR     43  39  87 NE5       30.39R
DAUPHIN        CLEAR     43  41  93 W6        30.40R
ISLAND LAKE    PTCLDY    48  46  93 CALM      30.40R
PILOT MOUND      N/A     45  43  93 S7          N/A
THE PAS        CLOUDY    48  43  81 E2        30.39F
THOMPSON       CLEAR     37  32  81 CALM      30.38R
WINNIPEG       CLEAR     46  45  93 S6        30.42R
LYNN LAKE      CLEAR     37  34  87 SW7       30.35R
CHURCHILL      PTCLDY    46  32  57 W15G22    30.21R
GILLAM         CLEAR     41  34  75 SW7       30.36R
$$
                ***SASKATCHEWAN***

CITY           SKY/WX    TMP DP  RH WIND       PRES   REMARKS
ESTEVAN        PTCLDY    54  43  66 SE8       30.30S
KINDERSLEY     CLOUDY    46  39  76 E15       30.25F
LLOYDMINSTER   CLOUDY    48  37  66 SE7       30.29S
PRINCE ALBERT  LGT RAIN  50  43  76 NE3       30.34S
REGINA         PTCLDY    55  39  54 SE20G25   30.24F
YORKTON        CLOUDY    54  46  76 E9        30.34S
N. BATTLEFORD  CLOUDY    46  39  76 E6        30.33F
LA RONGE       MOCLDY    43  37  81 S5        30.35S
SASKATOON      LGT RAIN  48  45  87 E10       30.31F
SWIFT CURRENT  PTCLDY    46  39  76 E12       30.21S
$$
NOTE: THESE ARE AUTOMATED STATIONS WITH LIMITED QUALITY CONTROL
      "FAIR" INDICATES FEW OR NO CLOUDS BELOW 12,000 FEET WITH NO
      SIGNIFICANT WEATHER AND/OR OBSTRUCTIONS TO VISIBILITY.
      SKY/WX - SKY CONDITION AND SIGNIFICANT WEATHER.
      TMP - AIR TEMPERATURE.    DP   - DEWPOINT TEMPERATURE.
      RH  - RELATIVE HUMIDITY.  PRES - PRESSURE.
      HX  - HEAT INDEX.         WCI  - WIND CHILL INDEX.
$




USA.gov is the U.S. government's official web portal to all federal, state and local government web resources and services.